Terminal Aerodrome Forecast
Issued by NWS

Home | Current Version | Previous Version | Graphics & Text | Print | Product List | Glossary On
Versions: 1 2 3 4 5 6 7 8 9 10 11 12 13 14 15 16 17 18 19 20 21 22 23 24 25 26 27
000
FTUS43 KGRB 230536
TAFATW
TAF
KATW 230536Z 2306/2406 VRB03KT P6SM VCSH BKN050 BKN100
      TEMPO 2306/2310 5SM -TSRA BKN030CB
     FM231200 06005KT 6SM -RA BR OVC030 PROB30 2315/2321 4SM -RA BR
      OVC015
     FM232100 04009KT 5SM -RA BR OVC015
     FM240500 03008KT 6SM BR BKN015 OVC040=

USA.gov is the U.S. government's official web portal to all federal, state and local government web resources and services.